Weather History for KDEH - September, 2013

Change the Weather History Date:

Friday, September 27, 2013

  Actual Average Record
Temperature  
Mean Temperature 68 °F -  
Max Temperature 80 °F 69 °F 86 °F (1986)
Min Temperature 57 °F 46 °F 28 °F (1957)
Cooling Degree Days 4    
Growing Degree Days 18 (Base 50)    
Moisture  
Dew Point 56 °F    
Average Humidity 66    
Maximum Humidity 77    
Minimum Humidity 47    
Precipitation  
Precipitation 0.00 in - - ()
Sea Level Pressure  
Sea Level Pressure 30.00 in    
Wind  
Wind Speed 10 mph (SSE)    
Max Wind Speed 18 mph    
Max Gust Speed 28 mph    
Visibility 10 miles    
Events      
Averages and records for this station are not official NWS values.
T = Trace of Precipitation, MM = Missing Value Source: NWS Daily Summary

Daily Weather History Graph

Daily Weather History Graph

Search for Another Location

Airport or City:

Trip Planner

Search our weather history database for the weather conditions in past years. The results will help you decide how hot, cold, wet, or windy it might be!

Date:

Astronomy

Sep. 27, 2013 Rise Set
Actual Time 7:00 AM CDT 6:54 PM CDT
Civil Twilight 6:31 AM CDT 7:23 PM CDT
Nautical Twilight 5:58 AM CDT 7:56 PM CDT
Astronomical Twilight 5:24 AM CDT 8:29 PM CDT
Moon No Moon Rise 2:42 PM CDT (9/27)
Length of Visible Light 12h 51m
Length of Day
11h 54m
Last Quarter, 45% of the Moon is Illuminated
Sep 27
Last Quarter
Oct 4
New
Oct 11
First Quarter
Oct 18
Full
Oct 26
Last Quarter

Hourly Weather History & Observations

Time (CDT) Temp. Heat Index Dew Point Humidity Pressure Visibility Wind Dir Wind Speed Gust Speed Precip Events Conditions
12:15 AM 62.6 °F - 55.4 °F 77% 30.00 in 10.0 mi SSE 9.2 mph - N/A   Mostly Cloudy
12:35 AM 62.6 °F - 55.4 °F 77% 30.00 in 10.0 mi SE 9.2 mph 16.1 mph N/A   Overcast
12:55 AM 62.6 °F - 55.4 °F 77% 30.01 in 10.0 mi SE 9.2 mph - N/A   Scattered Clouds
1:15 AM 62.6 °F - 55.4 °F 77% 30.01 in 10.0 mi SSE 10.4 mph 18.4 mph N/A   Scattered Clouds
1:35 AM 62.6 °F - 53.6 °F 72% 30.01 in 10.0 mi SSE 9.2 mph 17.3 mph N/A   Scattered Clouds
1:55 AM 62.6 °F - 53.6 °F 72% 30.02 in 10.0 mi SE 11.5 mph - N/A   Mostly Cloudy
2:15 AM 60.8 °F - 51.8 °F 72% 30.03 in 10.0 mi SE 9.2 mph 16.1 mph N/A   Scattered Clouds
2:35 AM 60.8 °F - 51.8 °F 72% 30.03 in 10.0 mi SE 9.2 mph - N/A   Scattered Clouds
2:55 AM 60.8 °F - 51.8 °F 72% 30.02 in 10.0 mi SE 9.2 mph - N/A   Scattered Clouds
3:15 AM 60.8 °F - 51.8 °F 72% 30.02 in 10.0 mi SE 9.2 mph 16.1 mph N/A   Partly Cloudy
3:35 AM 59.0 °F - 50.0 °F 72% 30.02 in 10.0 mi SE 9.2 mph 15.0 mph N/A   Mostly Cloudy
3:55 AM 59.0 °F - 50.0 °F 72% 30.02 in 10.0 mi SE 8.1 mph - N/A   Overcast
4:15 AM 59.0 °F - 50.0 °F 72% 30.02 in 10.0 mi SE 8.1 mph 15.0 mph N/A   Overcast
4:35 AM 59.0 °F - 50.0 °F 72% 30.02 in 10.0 mi SE 10.4 mph - N/A   Overcast
4:55 AM 59.0 °F - 50.0 °F 72% 30.02 in 10.0 mi SE 8.1 mph 16.1 mph N/A   Overcast
5:15 AM 57.2 °F - 50.0 °F 77% 30.03 in 10.0 mi SSE 6.9 mph 13.8 mph N/A   Overcast
5:35 AM 57.2 °F - 50.0 °F 77% 30.03 in 10.0 mi SE 8.1 mph 13.8 mph N/A   Overcast
5:55 AM 57.2 °F - 50.0 °F 77% 30.04 in 10.0 mi SE 8.1 mph - N/A   Overcast
6:15 AM 57.2 °F - 50.0 °F 77% 30.04 in 10.0 mi SE 9.2 mph - N/A   Scattered Clouds
6:35 AM 57.2 °F - 50.0 °F 77% 30.04 in 10.0 mi SE 9.2 mph - N/A   Partly Cloudy
6:55 AM 57.2 °F - 50.0 °F 77% 30.04 in 10.0 mi SE 8.1 mph 13.8 mph N/A   Clear
7:15 AM 57.2 °F - 50.0 °F 77% 30.04 in 10.0 mi SE 8.1 mph - N/A   Clear
7:35 AM 57.2 °F - 50.0 °F 77% 30.04 in 10.0 mi SE 9.2 mph - N/A   Clear
7:55 AM 57.2 °F - 50.0 °F 77% 30.04 in 10.0 mi SE 9.2 mph 16.1 mph N/A   Light Drizzle
8:15 AM 59.0 °F - 50.0 °F 72% 30.04 in 10.0 mi SE 10.4 mph - N/A   Clear
8:35 AM 60.8 °F - 51.8 °F 72% 30.04 in 10.0 mi SSE 6.9 mph 15.0 mph N/A   Clear
8:55 AM 62.6 °F - 51.8 °F 68% 30.04 in 10.0 mi SSE 10.4 mph 17.3 mph N/A   Clear
9:15 AM 62.6 °F - 53.6 °F 72% 30.04 in 10.0 mi SSE 13.8 mph - N/A   Clear
9:35 AM 64.4 °F - 53.6 °F 68% 30.04 in 10.0 mi SSE 10.4 mph 16.1 mph N/A   Clear
9:55 AM 68.0 °F - 55.4 °F 64% 30.04 in 10.0 mi SSE 10.4 mph - N/A   Clear
10:15 AM 69.8 °F - 57.2 °F 64% 30.05 in 10.0 mi South 9.2 mph - N/A   Clear
10:35 AM 69.8 °F - 59.0 °F 68% 30.05 in 10.0 mi South 6.9 mph 16.1 mph N/A   Clear
10:55 AM 71.6 °F - 59.0 °F 64% 30.05 in 10.0 mi SSE 11.5 mph - N/A   Clear
11:15 AM 73.4 °F - 60.8 °F 65% 30.05 in 10.0 mi South 10.4 mph - N/A   Clear
11:35 AM 75.2 °F - 60.8 °F 61% 30.04 in 10.0 mi South 12.7 mph - N/A   Clear
11:55 AM 75.2 °F - 60.8 °F 61% 30.03 in 10.0 mi SSE 11.5 mph 18.4 mph N/A   Clear
12:15 PM 77.0 °F - 60.8 °F 57% 30.03 in 10.0 mi South 13.8 mph - N/A   Clear
12:35 PM 77.0 °F - 60.8 °F 57% 30.02 in 10.0 mi SSE 12.7 mph 23.0 mph N/A   Partly Cloudy
12:55 PM 78.8 °F - 60.8 °F 54% 30.02 in 10.0 mi South 10.4 mph 18.4 mph N/A   Partly Cloudy
1:15 PM 78.8 °F - 60.8 °F 54% 30.01 in 10.0 mi South 10.4 mph 23.0 mph N/A   Scattered Clouds
1:35 PM 78.8 °F - 59.0 °F 51% 30.00 in 10.0 mi South 16.1 mph 27.6 mph N/A   Partly Cloudy
1:55 PM 80.6 °F 81.5 °F 60.8 °F 51% 29.99 in 10.0 mi SSE 16.1 mph 24.2 mph N/A   Clear
2:15 PM 78.8 °F - 60.8 °F 54% 29.98 in 10.0 mi SSE 15.0 mph 26.5 mph N/A   Clear
2:35 PM 78.8 °F - 59.0 °F 51% 29.97 in 10.0 mi SSE 18.4 mph 27.6 mph N/A   Clear
2:55 PM 80.6 °F 81.5 °F 60.8 °F 51% 29.97 in 10.0 mi SSE 13.8 mph 20.7 mph N/A   Clear
3:15 PM 80.6 °F 81.1 °F 59.0 °F 48% 29.96 in 10.0 mi SSE 13.8 mph 25.3 mph N/A   Clear
3:35 PM 80.6 °F 81.5 °F 60.8 °F 51% 29.95 in 10.0 mi SSE 17.3 mph 25.3 mph N/A   Clear
3:55 PM 80.6 °F 81.1 °F 59.0 °F 48% 29.95 in 10.0 mi SSE 12.7 mph 21.9 mph N/A   Clear
4:15 PM 78.8 °F - 59.0 °F 51% 29.94 in 10.0 mi South 16.1 mph 26.5 mph N/A   Clear
4:35 PM 78.8 °F - 59.0 °F 51% 29.94 in 10.0 mi SSE 12.7 mph 21.9 mph N/A   Clear
4:55 PM 78.8 °F - 59.0 °F 51% 29.94 in - South 11.5 mph 21.9 mph N/A   Clear
5:15 PM 78.8 °F - 57.2 °F 47% 29.94 in 10.0 mi SSE 13.8 mph 23.0 mph N/A   Clear
5:35 PM 78.8 °F - 57.2 °F 47% 29.94 in 10.0 mi South 15.0 mph 26.5 mph N/A   Clear
5:55 PM 77.0 °F - 57.2 °F 50% 29.94 in 10.0 mi SSE 9.2 mph 19.6 mph N/A   Clear
6:15 PM 77.0 °F - 59.0 °F 54% 29.95 in 10.0 mi South 8.1 mph - N/A   Clear
6:35 PM 75.2 °F - 59.0 °F 57% 29.95 in 10.0 mi SSE 4.6 mph - N/A   Clear
6:55 PM 73.4 °F - 59.0 °F 61% 29.96 in 10.0 mi SSE 3.5 mph - N/A   Clear
7:15 PM 71.6 °F - 59.0 °F 64% 29.96 in 10.0 mi SE 4.6 mph - N/A   Clear
7:35 PM 69.8 °F - 59.0 °F 68% 29.96 in 10.0 mi SE 6.9 mph - N/A   Partly Cloudy
7:55 PM 69.8 °F - 57.2 °F 64% 29.96 in 10.0 mi SE 6.9 mph - N/A   Partly Cloudy
8:15 PM 68.0 °F - 57.2 °F 68% 29.96 in 9.0 mi SE 6.9 mph - N/A   Mostly Cloudy
8:35 PM 66.2 °F - 57.2 °F 73% 29.96 in 10.0 mi SE 6.9 mph - N/A   Overcast
8:55 PM 66.2 °F - 57.2 °F 73% 29.96 in 10.0 mi SE 6.9 mph - N/A   Overcast
9:15 PM 64.4 °F - 57.2 °F 77% 29.96 in 10.0 mi SE 6.9 mph - N/A   Overcast
9:35 PM 64.4 °F - 55.4 °F 73% 29.96 in 10.0 mi SE 8.1 mph - N/A   Overcast
9:55 PM 64.4 °F - 55.4 °F 73% 29.96 in 10.0 mi SSE 8.1 mph - N/A   Overcast
10:15 PM 64.4 °F - 55.4 °F 73% 29.96 in 10.0 mi SSE 6.9 mph - N/A   Overcast
10:35 PM 64.4 °F - 55.4 °F 73% 29.96 in 10.0 mi SE 8.1 mph - N/A   Overcast
10:55 PM 62.6 °F - 55.4 °F 77% 29.96 in 10.0 mi SE 6.9 mph - N/A   Overcast
11:15 PM 62.6 °F - 55.4 °F 77% 29.95 in 10.0 mi SSE 8.1 mph - N/A   Mostly Cloudy
11:35 PM 64.4 °F - 53.6 °F 68% 29.95 in 10.0 mi SSE 6.9 mph - N/A   Overcast
11:55 PM 62.6 °F - 53.6 °F 72% 29.95 in 10.0 mi Variable 6.9 mph - N/A   Overcast